Theta_e
298 298 298 298 298 298 297 297 297 297 297 296 297 296 296 296 297 297 297 297 297 298 298 299 300 300 301 302 302 302 303 304 304 305 305 305 306 307 310 312 312 312 313 315 317 319 321 322 324 325 326 326 329 332 335 337 340 340 342 343 343 345 345 345 345 345 344 344 343 343 343 344 344 344 344 344 343 344 344 344 344 343 343 342 341
297 297 297 297 297 298 297 297 296 296 296 295 295 295 295 295 296 296 296 297 296 297 297 298 298 299 299 300 300 301 302 302 303 304 304 304 305 305 308 310 312 311 311 313 315 317 318 321 322 323 325 325 326 328 332 334 336 340 340 340 343 343 344 345 345 344 344 342 343 343 343 343 343 344 344 344 343 343 344 344 344 343 342 341 341
297 297 296 297 297 296 296 296 295 295 295 295 295 295 295 295 295 295 295 296 296 296 296 296 297 298 299 299 299 299 300 301 301 302 303 303 304 304 306 308 310 311 311 311 312 314 316 318 320 322 323 323 324 325 326 330 335 337 339 339 340 341 343 344 344 344 344 344 343 342 343 343 342 341 343 343 343 343 342 343 343 343 342 341 340
297 297 296 296 295 295 296 295 295 295 294 294 294 295 295 295 296 296 296 296 295 296 297 296 296 296 297 297 298 298 298 299 300 301 301 302 303 303 304 306 307 310 310 310 312 312 313 315 316 319 321 323 325 325 326 326 328 332 334 339 341 340 341 343 343 344 344 344 343 342 341 342 342 342 342 343 342 342 342 342 342 341 339 340 340
296 296 296 295 295 295 295 295 295 294 294 294 295 294 294 294 295 295 295 295 295 295 296 295 295 295 296 296 296 296 297 298 298 299 300 301 301 302 303 304 305 307 308 310 311 311 312 312 313 315 318 320 322 323 325 326 327 329 333 335 338 341 339 341 342 343 344 344 344 343 341 341 342 342 342 342 342 341 342 341 341 341 340 340 340
295 295 295 294 295 294 294 294 294 293 293 294 293 293 293 293 293 293 294 294 293 294 294 293 294 294 295 295 296 296 296 296 296 297 299 300 301 302 302 302 302 303 306 308 309 310 310 311 311 313 315 317 319 322 324 325 327 327 329 331 333 338 340 340 339 341 344 344 344 343 342 342 342 342 342 342 341 341 341 341 341 341 340 339 339
295 294 294 294 293 293 293 293 293 293 292 293 293 293 293 292 292 292 293 293 293 293 293 292 293 293 294 294 294 295 295 296 297 297 297 299 300 301 302 302 302 303 304 303 304 306 311 311 310 311 312 313 315 316 318 321 324 327 331 332 333 333 336 339 339 339 342 343 343 342 342 342 342 342 342 342 341 341 341 340 340 341 339 338 339
294 294 293 293 293 292 293 293 293 292 292 292 292 292 292 292 292 293 291 291 291 291 292 291 292 292 293 293 294 295 295 295 296 297 298 298 299 300 301 302 302 302 303 302 302 303 306 308 308 310 311 311 313 314 317 319 320 320 321 326 333 334 336 337 338 339 338 340 342 341 341 341 341 341 341 342 342 341 341 341 340 340 339 338 338
294 293 293 293 292 292 292 293 292 292 291 291 291 292 291 292 292 292 292 290 290 290 290 291 291 291 292 292 293 294 294 295 296 296 299 298 298 299 300 301 302 303 302 303 303 304 304 307 310 310 310 310 311 312 313 316 318 320 322 322 321 328 334 335 336 337 337 337 339 341 341 341 341 341 341 341 341 340 341 341 340 340 339 339 339
293 293 292 292 292 292 292 292 292 291 291 291 291 291 292 292 290 291 291 290 289 289 289 290 291 291 291 292 292 293 294 295 296 297 297 297 298 299 300 301 301 302 302 303 303 303 304 305 307 308 308 309 311 312 313 314 316 318 321 322 323 322 325 331 333 335 337 337 337 340 340 340 340 340 341 341 340 340 340 340 339 339 339 340 339
293 293 292 291 291 292 291 292 291 291 290 290 290 291 291 291 289 289 290 290 289 289 289 290 290 290 290 290 292 293 295 296 297 297 297 298 298 300 301 301 301 302 302 303 303 304 304 304 304 304 304 306 310 310 311 312 313 315 318 321 324 325 325 325 330 332 335 337 336 337 340 339 339 339 339 340 340 339 340 340 339 339 339 339 339
293 292 292 291 291 291 291 291 291 290 290 289 289 289 289 289 288 288 288 289 290 290 290 289 289 289 289 291 292 293 293 294 294 295 297 298 298 299 299 301 301 302 303 303 303 303 303 304 303 303 304 306 308 310 310 309 310 312 313 315 318 321 326 326 328 331 332 336 338 336 338 339 339 339 339 340 340 341 341 341 339 340 339 339 339
292 292 291 291 290 290 290 290 290 290 289 289 289 289 289 289 288 289 288 287 288 289 289 289 287 287 289 289 289 291 293 294 294 295 296 297 299 299 300 300 301 301 301 302 302 302 302 303 303 303 303 304 304 306 308 310 310 313 313 314 316 318 321 323 325 330 332 334 335 337 335 336 340 340 340 340 340 341 341 340 339 339 339 339 339
292 292 291 290 290 289 290 289 289 289 289 289 289 289 288 289 289 287 288 287 286 288 289 289 287 285 284 285 288 291 292 292 292 294 297 298 300 300 298 298 299 299 299 299 300 301 302 302 302 303 304 304 304 304 305 306 308 311 313 315 317 320 322 323 324 324 327 333 334 336 337 337 338 340 340 341 340 341 341 340 339 340 340 339 339
292 291 290 290 290 289 289 289 289 289 288 288 288 288 288 288 288 287 286 287 287 289 289 289 285 286 286 285 284 283 288 291 296 297 294 293 292 292 293 294 295 296 297 297 298 299 300 300 301 302 302 302 302 303 304 304 307 305 310 312 314 317 319 322 325 328 328 332 332 334 336 338 338 337 341 341 341 342 342 341 341 338 339 339 339
291 291 290 290 289 289 289 288 288 289 288 287 287 287 287 287 287 287 286 284 285 286 288 288 287 285 281 282 282 283 282 286 286 289 291 290 291 292 294 295 296 296 296 295 297 298 298 299 301 301 301 301 301 301 302 302 301 300 299 301 304 312 316 319 320 326 327 332 332 333 334 337 339 337 337 339 341 342 342 342 341 340 339 339 338
291 290 290 289 289 289 288 288 288 288 287 286 286 286 287 287 287 286 286 284 283 285 286 288 287 288 285 282 281 281 281 283 284 284 289 290 292 291 291 291 292 293 294 295 296 297 297 298 299 299 300 300 301 301 300 301 301 302 302 298 300 307 314 319 321 322 325 328 330 331 333 335 338 338 338 336 339 341 342 342 341 339 338 339 338
290 290 289 289 288 288 288 288 287 287 287 287 286 286 286 286 287 286 285 286 284 284 283 287 287 288 288 287 285 281 280 283 283 279 287 288 288 290 291 292 292 292 293 293 294 294 296 296 297 297 298 298 298 299 300 300 300 302 303 305 308 311 310 311 313 318 327 329 326 329 329 331 336 336 336 339 339 340 340 342 342 339 338 338 338
290 289 289 288 288 288 287 287 287 286 287 286 285 286 286 286 287 286 285 286 285 282 283 284 285 286 287 287 287 287 286 283 280 282 279 284 287 287 288 290 291 291 291 292 294 294 294 295 295 296 296 297 297 298 299 300 299 299 299 300 304 306 307 307 307 311 316 322 324 328 330 329 331 335 334 337 338 336 341 340 337 339 338 339 338
289 289 289 288 287 287 287 286 286 286 286 285 285 286 286 286 286 286 286 285 285 283 283 284 282 283 286 285 285 286 287 286 286 282 280 278 280 286 288 288 289 290 291 290 291 292 292 294 294 294 295 296 297 297 298 298 299 299 299 302 304 306 307 308 308 308 309 313 321 326 330 331 330 333 337 336 334 338 337 339 341 341 340 340 339
289 288 288 287 287 286 286 286 285 285 285 286 285 285 285 285 285 284 284 284 284 284 283 283 283 282 283 283 284 284 284 285 285 284 281 279 279 281 282 287 287 288 289 290 291 292 292 292 292 293 293 294 295 296 297 298 299 299 300 302 304 307 309 310 310 309 309 311 315 318 323 329 330 331 334 336 334 336 338 338 340 340 341 339 338
288 288 287 287 286 286 286 285 285 285 285 285 285 284 284 285 285 284 284 284 284 284 283 283 283 283 283 283 282 282 282 282 283 283 283 283 279 280 282 282 281 284 288 288 289 289 290 290 291 291 292 292 293 295 296 296 297 299 300 301 303 305 307 307 308 308 309 310 311 313 315 319 326 330 331 334 335 334 334 337 336 341 341 339 336
287 287 287 286 286 286 285 285 285 284 284 284 284 284 284 284 284 284 284 283 283 283 283 283 283 283 283 282 281 281 280 279 280 281 281 280 280 280 281 282 281 281 284 287 287 288 289 289 289 290 290 291 292 293 294 295 295 297 297 300 302 303 305 305 305 306 308 308 309 310 313 314 317 322 328 331 334 335 335 339 335 336 339 338 337
286 286 286 286 285 285 285 284 284 284 284 284 284 284 284 284 283 283 283 283 283 283 283 282 282 282 282 282 282 282 282 281 282 282 281 280 280 279 280 281 281 282 284 285 287 286 287 288 289 290 291 291 292 293 293 294 294 295 295 297 301 303 305 306 306 307 307 307 308 309 310 312 312 313 317 326 330 332 335 334 335 333 333 338 337
285 285 285 285 285 284 283 283 283 283 283 283 283 283 283 282 282 282 282 282 282 282 281 281 282 281 281 282 282 282 282 283 283 282 282 282 281 278 280 281 279 280 282 283 282 285 285 286 288 289 290 290 291 292 293 293 294 294 295 297 300 301 302 304 305 305 305 305 306 307 308 309 311 311 314 317 326 330 334 334 332 335 335 334 335
285 284 284 284 284 283 283 282 283 283 283 282 282 282 282 282 282 281 281 282 282 282 281 281 281 282 282 281 281 281 281 282 282 282 281 280 279 278 278 279 280 278 280 280 282 281 282 286 287 288 289 289 290 291 291 292 293 294 294 294 297 299 301 304 305 305 306 306 306 305 306 307 310 311 312 315 320 326 330 335 334 337 336 336 337
284 284 284 283 282 282 282 282 282 282 282 281 282 281 281 281 281 281 281 281 281 281 281 281 280 281 281 281 281 281 281 282 281 281 281 280 280 279 278 276 276 278 277 279 279 279 280 283 286 286 287 287 288 288 289 290 291 293 293 295 296 297 299 302 303 304 304 304 304 304 304 304 305 308 309 312 314 321 328 330 334 336 335 334 332
283 283 283 282 281 281 281 281 281 281 281 281 280 280 280 280 279 280 279 281 280 280 280 280 280 280 280 281 280 280 281 281 281 281 281 281 280 280 279 277 275 273 276 276 277 278 282 280 283 285 285 286 288 289 290 290 290 292 291 292 293 294 297 300 303 304 305 305 306 305 306 307 308 309 310 311 312 315 321 325 328 330 328 326 327
282 282 281 281 281 280 280 280 280 280 280 280 279 279 279 279 279 279 278 279 279 279 280 279 280 280 280 280 280 280 280 281 281 281 281 281 280 280 280 278 277 275 273 273 274 275 278 281 279 282 285 286 287 288 288 289 291 291 291 292 294 296 297 299 301 302 303 303 304 304 304 304 305 306 306 308 310 312 317 319 320 323 323 323 325
281 281 281 280 279 280 279 279 279 279 279 279 279 278 278 278 278 278 278 279 278 279 279 279 279 279 279 279 280 279 280 280 280 280 280 280 280 280 280 279 279 276 275 273 273 277 277 280 280 280 283 283 285 285 286 286 289 289 290 290 291 292 296 299 300 302 303 305 305 305 305 304 304 303 305 308 309 311 315 318 320 322 323 324 326
280 280 279 279 279 279 278 278 278 278 278 278 278 278 278 277 277 278 278 278 278 277 278 278 279 279 278 278 279 278 279 279 279 279 279 279 279 279 279 279 278 277 276 275 272 276 279 276 278 281 281 282 283 284 285 286 287 288 288 288 289 291 292 295 297 301 303 303 303 304 303 303 303 304 304 304 308 312 314 317 318 320 322 324 328
279 279 278 278 278 277 277 277 277 277 277 277 277 277 277 276 276 276 277 277 277 276 277 278 278 278 277 277 277 277 278 278 278 278 277 278 278 278 278 278 277 277 277 275 273 273 277 277 277 279 281 281 282 281 281 282 284 285 285 285 286 288 288 292 295 298 299 301 302 303 303 303 304 305 304 304 305 309 313 316 318 320 321 324 324
279 278 277 277 277 277 277 277 277 276 276 276 276 276 276 275 275 276 276 276 275 275 276 276 276 276 276 276 276 276 277 276 276 276 276 276 277 277 277 277 276 277 276 274 273 272 275 279 278 279 280 280 278 280 279 281 281 283 285 285 286 287 288 291 293 294 298 300 301 302 303 303 303 304 304 304 305 307 310 315 317 318 320 323 323
278 277 277 277 277 276 276 276 276 275 275 275 275 275 274 274 274 274 274 274 274 273 274 273 274 275 275 274 274 274 275 274 274 274 274 275 275 275 275 276 275 275 276 274 273 273 272 276 276 278 277 279 277 280 279 279 281 283 283 284 286 287 288 291 294 295 297 299 301 302 303 303 303 303 304 304 305 308 309 313 316 316 318 320 321
277 277 276 276 276 276 275 275 274 274 274 274 274 273 273 273 272 272 273 272 272 272 272 272 272 273 272 272 272 273 274 273 273 273 273 273 274 274 274 274 274 274 275 274 273 272 272 273 276 275 276 276 276 276 278 279 279 281 281 284 287 290 292 293 293 294 297 299 301 302 302 303 303 303 303 304 304 305 307 310 314 315 316 318 319
276 276 276 275 275 274 273 273 273 273 273 273 273 272 272 272 271 271 271 271 271 271 271 271 271 271 271 271 271 272 272 271 271 271 271 272 272 272 272 273 273 273 274 274 274 273 273 272 274 274 275 275 276 277 278 280 280 280 281 281 283 286 289 291 292 294 297 299 300 301 301 302 302 302 303 303 304 304 306 309 312 314 315 315 316
275 275 274 274 273 273 272 272 272 272 272 272 271 271 271 271 271 271 270 270 270 270 270 270 271 270 270 270 271 271 271 270 270 270 270 270 271 271 271 272 272 272 273 274 274 274 273 272 272 274 275 275 275 276 277 277 279 280 281 283 285 287 288 291 293 295 296 298 298 299 299 300 301 302 303 304 304 304 305 307 311 313 313 314 314
274 273 273 272 272 271 272 271 271 271 271 271 271 270 270 271 271 270 270 270 270 270 270 270 270 270 270 271 271 272 271 270 269 270 270 270 271 271 271 271 272 272 272 272 273 273 273 272 272 272 273 273 273 275 277 278 278 278 281 284 287 288 290 291 293 295 296 297 297 298 298 299 299 300 302 302 303 304 304 306 309 312 311 311 311
272 272 271 271 271 271 271 271 270 270 270 270 270 270 270 270 270 270 270 270 270 270 271 271 271 271 271 271 271 271 270 270 270 270 270 271 271 271 271 271 272 272 271 272 272 272 272 271 272 272 272 274 274 273 276 279 279 278 278 278 279 284 287 290 291 294 296 296 298 298 298 298 299 300 301 302 304 304 305 305 308 311 310 309 310
270 270 270 270 270 270 270 270 270 270 270 270 270 270 270 270 270 270 270 270 271 271 271 271 272 272 272 272 272 272 271 271 271 270 271 271 271 271 271 272 272 272 271 272 272 271 271 271 271 271 272 272 274 275 276 277 277 278 280 279 279 281 285 289 292 292 294 295 295 296 297 298 298 299 300 300 301 302 303 304 305 308 308 309 310
270 269 269 269 269 269 269 269 269 270 270 270 270 270 270 270 271 271 271 271 271 271 271 272 272 272 272 272 272 272 272 274 275 276 275 275 272 270 271 272 272 272 271 271 271 271 271 271 271 272 272 272 273 273 274 275 275 276 280 283 282 285 287 288 291 294 294 293 294 294 295 296 296 297 299 301 303 303 303 301 305 305 307 309 309
268 268 268 268 268 268 268 269 269 269 270 270 271 272 273 271 272 272 272 272 272 272 272 271 272 272 272 273 273 275 276 276 277 277 278 278 278 276 274 274 273 273 272 272 271 271 271 271 271 271 271 271 273 274 274 275 277 280 281 282 282 285 287 288 289 291 294 294 293 292 294 297 297 297 299 300 303 304 306 308 309 311 308 309 309
267 267 267 266 267 268 268 268 269 269 270 270 272 273 274 275 274 273 272 272 273 273 273 272 272 272 273 273 273 275 275 276 275 277 278 278 278 279 279 279 278 275 273 272 272 273 272 271 272 273 272 272 274 275 275 275 277 277 278 280 282 284 285 285 284 288 290 291 291 290 289 293 295 295 299 301 303 305 309 310 308 308 308 309 309
266 266 266 266 267 268 268 268 268 269 269 271 272 273 274 275 275 274 273 273 273 273 273 273 272 273 273 273 273 274 274 274 274 274 275 277 278 278 279 279 279 280 280 276 274 274 274 273 273 274 274 274 274 275 275 276 277 279 281 281 282 284 285 285 286 285 290 290 288 287 287 290 293 293 294 297 302 306 310 310 308 308 309 309 309
266 266 266 266 267 268 268 268 268 268 268 271 272 273 274 275 276 276 274 273 273 272 273 273 273 273 273 273 273 273 274 276 275 274 274 274 276 277 278 278 279 279 280 281 281 278 277 275 274 274 275 275 275 276 277 277 278 277 278 280 281 282 285 285 286 286 288 288 287 286 285 288 291 291 293 297 301 305 310 308 309 308 308 308 308
265 265 266 266 267 267 267 267 267 268 268 270 272 273 275 276 276 276 274 273 273 273 273 273 273 273 273 272 272 272 273 274 274 274 273 273 273 274 274 274 274 276 278 279 279 280 279 277 276 275 276 277 276 277 278 279 277 276 277 277 280 281 283 284 287 287 288 289 286 286 285 287 290 292 292 295 300 305 311 311 308 308 308 308 308
265 265 266 266 266 266 266 266 266 266 267 270 272 274 275 275 276 276 274 273 273 273 273 273 273 273 273 273 273 272 273 273 274 274 274 274 273 273 273 274 274 275 275 275 275 276 276 277 276 276 276 277 277 277 278 278 278 278 278 278 279 281 283 285 286 287 287 288 287 286 283 288 290 291 291 294 299 307 313 310 308 308 308 308 307
266 266 266 266 266 265 266 265 265 265 267 271 272 273 274 275 277 274 273 273 273 273 273 273 273 273 274 273 273 273 273 273 276 278 277 275 274 274 273 274 274 275 275 278 279 280 278 278 277 277 278 278 280 279 279 278 278 279 279 280 281 282 282 282 282 285 285 287 288 287 285 286 289 289 290 294 298 306 312 312 307 307 307 307 307
265 265 265 265 266 265 265 265 265 265 266 269 272 273 274 276 275 273 272 272 272 272 272 273 273 273 274 274 274 273 274 274 276 279 279 278 275 274 274 274 274 275 275 277 279 281 281 282 282 283 282 283 283 283 283 284 282 281 280 279 279 281 281 280 282 283 284 286 287 288 286 285 288 289 290 292 295 303 310 312 311 307 307 307 307
265 265 265 265 265 266 265 265 265 265 266 268 272 273 274 275 275 272 272 271 271 272 272 273 273 274 274 276 276 274 273 273 277 279 279 277 274 274 274 273 273 273 274 276 277 278 281 282 282 282 283 283 284 284 285 285 285 284 280 277 280 282 281 282 281 283 285 286 286 288 285 285 288 289 289 291 293 300 309 311 310 309 305 306 306
264 265 265 265 265 265 265 265 267 267 267 269 272 273 274 275 274 272 272 271 271 271 272 272 273 273 274 275 276 275 275 275 278 279 279 277 274 274 273 273 272 272 274 275 275 276 277 278 278 279 280 281 281 281 281 284 284 284 282 281 282 281 281 282 283 283 282 284 286 288 285 286 286 287 288 288 291 300 306 309 308 309 309 309 309
Wind_Speed
3 4 3 4 4 5 5 5 5 5 6 6 6 7 7 7 6 7 7 7 7 7 7 8 7 7 8 8 8 8 8 8 8 8 8 8 8 9 11 11 14 17 18 18 19 19 19 20 20 21 21 21 21 21 22 20 21 23 24 22 22 20 18 17 18 19 20 20 21 25 25 24 25 23 23 25 25 25 25 25 25 23 20 19 20
4 4 4 4 4 4 5 5 5 5 5 6 6 6 7 6 6 7 7 7 7 7 7 7 8 8 7 8 8 8 8 8 8 8 8 8 9 9 12 12 12 16 19 19 19 19 19 20 20 20 21 22 22 21 21 22 22 20 22 25 23 21 18 17 18 19 19 18 20 25 25 24 23 22 23 24 25 25 26 27 25 23 22 23 21
4 4 4 4 4 4 4 4 4 5 5 5 5 6 6 6 6 6 6 7 6 7 7 7 7 7 7 8 8 8 8 8 8 8 9 9 9 9 11 14 13 15 17 18 19 19 19 20 20 20 21 21 22 22 22 22 23 22 21 23 25 24 21 18 18 19 20 20 20 23 22 22 23 21 25 26 26 28 28 27 25 22 22 22 24
3 2 3 3 3 4 4 4 5 4 5 5 6 6 6 6 6 6 7 6 7 6 6 7 7 7 8 9 8 8 8 8 9 9 9 9 9 10 9 10 13 13 14 17 19 20 20 20 20 20 21 20 21 21 22 22 22 23 23 22 23 26 25 20 18 19 20 20 21 21 23 23 24 25 27 26 25 27 27 27 27 22 23 23 22
2 3 3 3 4 4 4 4 4 5 6 6 7 6 6 6 6 6 6 6 7 6 6 7 8 8 8 8 8 9 9 8 9 9 9 9 9 9 10 10 11 12 14 15 17 19 18 19 19 20 21 22 21 21 21 21 21 22 23 23 23 23 26 25 19 19 20 22 20 20 21 21 23 25 27 25 27 31 33 31 28 25 24 24 23
3 3 4 4 4 4 4 4 4 6 6 6 6 6 6 6 7 7 7 7 7 7 7 8 7 8 8 8 8 8 8 9 9 10 10 10 9 10 10 10 9 9 8 12 13 15 18 19 18 19 20 20 21 21 21 21 21 22 22 23 24 24 25 25 26 22 21 23 22 23 23 22 24 25 25 25 25 29 27 27 27 25 26 25 23
3 3 3 3 3 3 4 4 5 6 5 5 6 6 6 6 7 7 7 7 7 7 8 8 9 9 8 8 9 9 9 9 10 10 10 10 10 10 10 10 9 9 8 8 9 11 11 14 17 18 20 21 22 23 23 23 22 21 21 22 23 25 24 23 25 27 22 24 25 23 24 24 24 25 25 25 24 23 26 26 26 25 25 26 24
2 2 1 2 2 3 3 4 5 5 5 6 5 6 6 6 7 7 8 8 8 8 8 9 9 9 9 9 9 10 9 9 10 10 10 10 10 10 9 9 9 9 9 9 9 10 13 15 18 18 19 20 21 22 23 23 24 24 23 23 23 24 24 25 25 25 26 24 23 22 22 23 23 21 25 25 25 25 27 28 27 27 27 28 27
2 1 1 1 2 3 3 4 5 5 5 5 5 5 6 6 7 7 7 8 9 10 9 9 9 9 9 10 9 10 10 10 10 10 9 10 11 10 10 9 9 10 9 9 8 8 9 11 12 15 16 18 20 22 23 23 24 24 24 24 24 24 25 25 24 25 25 23 22 22 22 22 23 23 25 28 26 28 30 30 28 28 27 28 26
2 1 1 1 2 2 4 4 4 5 5 5 6 6 6 6 7 7 8 8 8 9 10 10 9 10 10 11 11 9 10 10 10 10 10 10 10 10 9 9 9 9 9 9 9 9 9 10 13 14 16 17 20 21 21 21 22 23 25 26 24 24 24 25 25 24 23 23 22 23 23 22 23 22 26 27 27 27 28 29 24 26 28 27 28
1 0 1 2 2 3 3 4 4 5 5 6 6 6 6 6 8 9 8 8 8 9 10 10 10 10 11 13 12 12 10 10 10 10 10 10 10 9 8 9 9 9 9 9 9 9 9 9 8 7 8 12 14 18 19 20 21 22 23 24 26 25 24 24 26 26 23 23 24 25 24 24 23 26 26 26 27 30 31 31 33 29 26 26 27
1 1 1 2 3 3 4 4 4 4 5 6 6 6 7 9 9 9 9 8 8 8 8 9 10 13 13 11 10 12 14 12 12 12 11 9 9 8 9 8 9 8 8 8 9 9 9 9 8 8 8 10 14 15 18 20 20 23 23 24 25 26 26 24 25 26 26 26 24 23 25 24 22 27 26 29 29 30 30 31 33 26 28 30 28
0 0 1 2 3 3 4 4 4 4 5 5 6 8 8 7 8 7 9 9 8 7 8 8 11 11 8 11 11 12 12 12 13 13 10 8 7 7 7 7 8 8 8 7 9 9 9 9 9 9 8 7 9 12 14 16 17 19 23 23 24 24 27 27 25 27 27 27 27 24 24 28 26 26 29 32 32 30 28 33 35 31 31 29 28
1 0 1 2 3 4 4 4 4 4 5 6 7 8 8 7 7 7 6 8 8 8 7 7 7 9 14 14 8 6 7 10 12 9 6 4 5 6 8 9 9 9 8 9 9 10 9 9 9 9 9 9 9 9 9 10 11 14 18 19 21 22 24 26 27 26 28 28 28 27 27 27 28 28 30 29 31 27 28 30 31 27 29 29 29
2 1 1 2 3 4 4 4 4 4 5 6 7 8 7 8 7 7 8 7 8 7 6 4 7 9 10 11 11 15 5 5 2 3 7 9 12 14 12 10 11 9 9 9 9 10 9 9 10 9 8 9 10 10 10 11 12 11 11 15 18 21 24 25 27 28 28 30 29 29 29 27 27 30 29 30 29 28 28 28 30 31 31 33 33
2 2 3 3 4 4 4 4 4 4 4 6 7 8 7 7 6 7 7 9 6 7 5 5 5 8 8 6 12 9 13 3 10 9 8 14 13 9 6 7 9 10 9 10 10 9 9 10 10 9 10 10 10 12 11 11 16 19 23 26 24 22 25 25 26 29 30 29 31 30 31 30 27 29 29 30 29 32 30 29 29 33 37 37 41
3 3 3 4 4 4 4 4 4 5 4 6 7 7 7 7 7 7 7 7 9 7 6 5 5 4 4 7 7 6 7 12 15 16 5 3 4 10 12 13 11 9 9 10 10 10 10 10 10 10 11 11 11 11 11 11 11 12 14 16 19 19 20 23 25 27 29 30 30 31 32 27 23 27 29 31 32 32 32 31 31 34 36 39 42
3 3 4 4 4 4 4 4 5 5 5 6 7 7 8 7 6 6 8 8 8 8 7 5 5 5 6 7 7 8 13 13 9 12 8 9 13 8 8 8 9 10 10 11 11 11 10 11 11 11 12 12 12 13 12 13 14 12 10 11 13 13 17 22 24 24 27 29 32 32 35 32 28 30 33 31 33 32 34 28 30 31 32 31 32
4 4 4 4 4 4 4 4 5 5 6 6 7 8 7 7 6 6 7 7 7 8 8 7 6 6 7 8 10 10 11 10 10 11 18 9 6 9 9 9 10 11 11 10 10 10 10 10 11 11 12 12 12 12 11 12 15 16 18 20 23 22 24 25 27 31 29 28 29 31 35 35 34 33 34 34 34 35 34 33 31 32 33 33 33
4 5 5 5 4 4 4 5 5 6 6 7 8 8 7 6 7 8 8 7 7 7 8 7 6 7 6 8 9 10 11 12 13 12 14 18 20 5 8 9 9 9 10 11 12 12 12 10 10 12 9 10 11 12 12 13 14 14 13 18 19 22 23 24 26 28 30 27 29 30 31 36 35 37 34 31 32 31 36 35 32 31 32 35 37
5 4 5 5 4 4 4 5 5 6 6 7 8 8 8 8 9 8 8 8 7 8 8 8 7 8 7 8 8 9 9 10 11 11 11 13 21 16 11 7 10 12 10 11 9 8 9 12 12 12 13 12 11 13 13 12 12 13 14 19 19 20 18 18 18 21 25 26 25 27 29 31 36 35 37 31 35 33 30 32 30 35 36 35 36
5 5 5 5 4 4 5 5 6 7 7 8 9 9 9 9 9 9 8 9 7 8 8 8 8 8 8 8 9 8 9 9 10 10 12 12 15 21 18 16 16 11 8 10 12 12 12 12 13 13 12 12 12 12 14 14 13 12 14 19 17 18 18 19 22 23 24 25 26 26 29 28 32 38 40 38 33 34 34 30 34 32 31 34 36
4 5 5 5 4 5 5 5 6 7 8 8 8 7 7 7 7 9 9 10 8 9 10 10 9 9 10 9 9 9 9 10 10 10 11 12 13 17 19 18 17 20 9 7 11 13 11 10 12 12 12 12 12 12 13 14 15 16 22 23 24 25 25 28 31 27 25 27 29 28 26 26 27 32 38 42 38 32 38 30 30 34 34 36 37
4 4 4 4 3 3 4 5 6 7 8 7 6 7 7 7 7 7 7 8 9 9 9 10 11 9 10 9 10 10 10 11 11 11 11 12 12 16 16 16 19 16 9 8 10 13 12 13 12 11 11 11 11 12 13 14 15 21 19 24 25 25 24 25 23 21 22 24 25 26 27 26 26 26 32 37 40 38 36 37 34 34 31 36 36
4 4 3 3 3 3 4 5 5 6 6 6 7 8 8 7 7 8 9 9 8 9 9 10 10 10 9 9 10 10 11 10 11 11 11 12 12 15 15 13 17 20 15 9 11 9 11 12 12 11 11 12 12 12 12 14 15 17 20 18 24 26 28 27 26 27 26 26 26 27 30 29 28 27 29 35 38 39 36 33 37 37 36 39 37
3 3 2 2 3 4 5 6 7 7 7 7 8 8 8 7 8 8 9 9 9 10 10 11 11 12 11 11 11 11 11 11 12 11 11 11 12 14 14 13 15 19 17 15 12 11 11 8 9 12 12 12 12 12 13 14 15 20 23 20 21 24 25 25 27 27 26 25 25 28 29 29 28 27 28 32 37 41 39 35 39 33 37 43 43
4 3 3 3 4 5 6 7 7 7 7 7 7 7 7 7 7 8 8 8 9 9 10 11 11 12 13 12 12 12 12 11 11 12 12 12 12 12 12 15 16 15 18 14 15 16 16 10 11 12 13 14 13 14 15 15 17 22 21 16 15 23 25 29 28 30 28 27 27 29 30 31 31 30 29 28 33 39 40 40 37 37 35 35 40
3 3 3 4 5 5 6 7 7 7 7 8 8 7 7 8 8 8 9 7 9 11 10 11 12 13 14 13 13 13 12 12 12 13 13 12 12 12 12 14 16 18 16 18 15 17 13 13 10 12 13 12 13 12 15 17 17 23 24 18 18 19 26 28 27 26 27 26 24 24 26 26 26 29 28 27 30 32 37 37 34 32 33 35 36
3 3 4 4 5 6 6 7 7 8 8 8 8 8 8 8 8 9 9 9 9 10 10 11 11 11 11 13 12 12 12 12 13 12 13 13 13 13 14 16 17 17 20 18 19 17 15 12 13 10 9 12 11 10 12 11 13 16 14 15 16 16 22 27 29 30 30 32 30 29 29 28 27 29 30 29 29 31 35 36 33 30 31 32 35
4 3 4 5 6 7 7 7 7 8 8 8 8 8 8 8 9 9 9 9 10 10 10 10 11 11 12 12 11 12 11 12 13 13 13 13 14 15 17 16 16 20 18 20 20 13 19 17 15 13 11 15 13 12 13 15 19 21 17 19 18 18 25 26 28 30 27 23 20 19 21 23 25 26 26 25 26 30 34 37 34 32 30 34 37
5 5 6 6 6 6 6 7 7 8 8 8 8 8 8 8 8 9 9 9 10 11 10 10 10 10 12 14 13 13 12 13 14 14 14 14 15 16 15 17 15 20 16 20 18 16 14 21 19 14 15 16 14 14 13 14 17 20 18 17 20 24 29 24 24 21 20 22 22 20 21 24 25 26 28 28 27 29 32 37 36 33 33 34 35
6 6 6 6 6 7 6 7 8 8 8 8 8 8 8 8 8 8 9 9 10 11 11 11 10 11 13 14 14 13 12 13 14 15 14 15 15 15 16 17 17 18 17 19 20 24 14 19 23 17 20 20 20 19 19 16 20 29 22 21 24 29 24 20 26 28 28 26 25 22 22 23 24 25 29 29 28 28 31 36 37 35 34 34 37
6 6 7 7 7 7 8 8 8 8 8 8 7 7 8 9 9 9 10 10 11 11 11 12 12 12 13 14 15 14 13 15 14 15 15 16 15 16 16 15 18 13 18 17 21 21 19 18 21 16 17 19 19 21 21 19 20 19 20 19 21 21 21 20 19 26 28 27 27 26 23 24 25 26 27 28 28 28 29 34 38 36 35 34 34
6 7 7 6 7 8 8 9 9 9 9 9 8 7 8 9 9 7 8 10 11 12 11 13 12 11 12 14 15 14 13 14 15 17 15 15 16 16 18 15 17 17 17 19 20 18 23 18 21 13 16 15 18 15 20 22 23 19 20 19 17 19 19 18 17 16 26 26 24 24 23 24 25 26 27 28 27 26 28 31 37 36 35 34 32
6 7 7 7 7 7 8 8 9 9 9 8 7 7 8 9 9 9 9 10 11 12 12 13 12 12 13 14 15 13 11 14 15 16 16 16 16 17 18 17 18 18 20 18 19 19 23 22 21 19 13 16 17 20 20 19 19 23 23 20 17 15 15 17 16 15 22 29 29 25 24 24 26 27 27 29 28 27 27 29 34 36 35 33 31
7 6 7 7 7 7 8 9 9 9 8 7 7 8 8 9 9 10 10 10 11 12 12 13 12 12 13 14 13 13 13 15 16 16 15 15 16 16 18 17 18 20 18 18 18 17 18 21 19 14 17 16 19 18 19 19 19 20 17 18 25 21 19 18 18 17 20 29 28 26 26 26 27 27 28 28 27 26 26 27 32 36 34 33 32
7 6 6 6 7 8 8 9 8 8 8 7 7 8 8 8 9 10 10 11 11 12 12 12 12 13 14 14 14 13 14 17 17 16 16 18 16 16 17 16 17 17 16 15 17 15 18 22 20 18 16 17 18 20 19 20 19 18 20 19 18 19 19 19 17 17 25 29 27 25 24 26 28 28 28 27 26 25 26 27 30 35 34 33 32
6 6 6 5 6 7 8 8 8 7 7 7 8 8 9 9 9 10 10 11 11 11 12 12 12 12 13 14 16 18 19 19 17 18 17 19 18 18 19 18 17 17 18 18 16 17 19 17 21 18 17 18 18 18 19 18 18 19 17 15 15 16 17 17 17 16 14 13 11 13 17 22 27 30 30 29 27 26 25 26 29 34 33 32 31
6 6 6 6 6 7 8 8 7 7 7 7 7 8 9 9 10 10 10 11 11 10 11 12 14 15 17 17 18 18 19 19 20 19 18 19 18 21 19 20 19 18 18 17 17 18 20 19 19 18 18 17 17 20 17 17 19 18 17 15 19 18 16 16 17 15 13 14 14 19 18 17 18 16 19 22 23 24 24 24 28 34 33 31 31
6 6 6 6 7 7 7 7 7 6 7 7 8 8 9 8 8 9 9 11 12 14 14 14 14 15 16 18 18 18 19 19 20 20 19 19 17 19 19 17 19 18 18 17 17 16 17 17 17 17 15 17 16 16 18 18 19 18 15 15 18 19 17 16 17 15 12 11 9 9 12 16 18 20 23 24 25 25 24 23 28 34 35 31 31
5 6 6 6 7 8 8 8 7 7 7 7 6 6 7 8 8 10 11 12 13 13 14 15 15 17 17 17 18 19 20 26 29 28 26 25 19 17 18 17 17 18 17 16 14 16 13 16 16 16 18 15 18 18 18 16 17 19 17 13 15 16 16 17 15 13 11 9 9 10 11 11 12 13 12 12 14 18 20 25 25 36 35 31 32
5 5 5 6 7 8 8 7 7 6 6 6 8 13 12 9 10 10 11 13 13 14 14 15 17 15 18 16 19 27 30 31 31 33 33 33 34 28 21 20 18 15 16 15 15 14 13 15 17 14 18 17 16 18 18 19 17 17 18 17 16 17 15 12 9 8 8 8 10 10 9 8 11 12 11 12 11 13 13 15 18 24 31 32 32
5 5 6 7 8 8 8 7 6 6 6 6 11 12 13 16 13 12 12 12 13 13 14 15 15 18 15 18 16 20 23 24 24 30 31 31 31 31 34 33 28 22 17 17 14 14 14 15 16 14 16 17 16 17 20 19 17 18 18 17 17 17 13 9 9 5 3 2 4 6 9 8 10 12 10 9 10 11 13 16 24 31 32 32 33
5 5 6 8 8 7 6 6 6 6 7 9 13 13 15 16 16 12 11 12 11 12 13 14 15 15 18 16 17 16 15 20 20 22 25 30 31 32 33 32 32 34 33 25 19 17 17 16 15 16 14 17 19 15 18 15 18 15 16 16 17 18 16 10 7 8 2 6 8 9 13 9 9 11 12 10 10 12 16 20 28 32 33 33 34
5 6 7 7 7 6 5 6 6 7 8 10 12 14 15 16 17 15 11 11 12 13 14 16 16 17 14 18 17 14 16 24 21 19 21 22 26 31 32 32 32 33 32 34 34 25 18 19 19 18 16 14 20 14 16 20 19 20 19 18 16 16 16 13 9 7 6 2 7 10 14 12 8 11 11 10 10 13 18 25 30 32 32 33 34
5 6 7 7 6 6 5 5 6 7 8 10 13 14 15 17 17 15 11 12 13 14 15 14 15 15 18 17 17 19 18 19 17 21 19 20 18 18 18 17 17 22 28 32 33 35 31 23 20 20 18 17 16 16 17 18 20 17 17 20 18 18 17 15 10 9 8 6 10 11 14 11 7 8 10 11 12 17 18 24 31 33 32 33 33
6 6 6 6 6 5 4 5 5 7 7 12 13 15 16 17 17 16 11 12 12 13 13 15 17 18 18 17 20 21 19 17 19 20 22 19 19 17 18 18 18 18 19 19 20 19 19 19 21 24 23 22 21 23 22 20 19 19 18 20 21 20 19 17 12 10 11 10 11 8 11 10 4 8 10 10 14 18 18 23 32 34 33 33 33
5 5 5 5 5 5 6 6 6 7 8 12 14 14 15 16 19 12 11 12 12 12 14 16 17 16 16 19 18 18 19 21 23 32 29 23 20 20 20 19 19 19 18 20 27 29 25 23 22 22 20 23 26 22 21 21 17 18 18 20 19 19 18 17 17 11 10 5 9 8 8 10 5 7 11 10 14 18 17 16 27 33 33 32 33
5 6 5 4 4 4 6 6 6 7 7 11 13 14 15 17 14 10 11 11 12 14 15 16 16 16 16 17 18 21 21 21 27 32 32 31 21 21 21 21 20 19 18 17 27 34 36 38 39 41 40 38 36 36 35 38 28 20 15 18 19 15 15 16 14 11 10 5 6 7 6 12 6 4 10 11 14 17 16 15 17 29 32 33 33
6 5 4 4 4 5 5 6 6 6 7 10 13 14 15 16 16 11 11 12 14 14 15 16 13 15 19 29 26 21 22 21 28 32 32 27 19 18 19 21 22 20 18 14 13 18 30 36 38 37 37 35 33 35 37 37 37 29 20 21 17 12 17 15 14 11 10 7 6 5 5 11 7 3 7 11 13 15 15 15 16 21 30 29 34
4 4 4 4 4 4 5 6 9 8 7 8 11 12 15 16 14 10 10 11 13 14 14 14 16 17 17 19 27 26 24 25 32 31 32 27 20 18 19 20 21 21 17 16 17 17 16 16 18 19 20 25 24 22 23 34 35 30 23 22 17 18 17 15 13 11 12 9 4 5 5 4 6 6 3 10 13 10 11 14 15 17 18 19 24
Wind_Direction
47 31 13 18 5 4 356 3 353 357 355 349 353 346 341 339 337 338 334 331 329 328 330 322 321 322 317 313 310 308 304 302 300 298 293 292 291 290 293 289 284 287 288 287 286 286 284 283 283 282 281 280 282 283 285 282 277 275 266 261 260 258 253 249 241 233 230 219 218 228 227 226 223 218 223 228 203 200 201 201 199 196 191 194 194
42 18 15 7 1 1 359 1 350 356 354 348 349 342 335 329 329 329 326 325 322 321 320 318 317 313 310 310 309 307 303 302 300 297 296 292 290 287 282 279 276 282 286 286 285 284 284 282 281 282 282 280 279 279 280 282 281 276 274 268 259 258 256 249 244 238 235 228 223 227 224 226 226 223 225 225 214 207 204 201 196 189 183 191 193
41 24 3 360 359 3 355 354 348 354 353 342 339 329 319 314 317 316 318 314 311 315 314 312 310 307 306 306 308 304 302 301 300 298 296 294 291 289 287 280 273 268 272 279 281 281 280 280 280 280 280 281 280 279 277 278 281 281 278 272 269 259 255 252 247 241 233 230 226 226 226 222 224 224 226 226 220 208 208 208 199 189 182 187 191
58 38 360 352 5 358 348 351 345 350 344 337 326 315 305 304 306 306 301 300 308 305 307 306 305 306 308 305 304 304 301 302 300 296 292 290 289 289 288 285 278 272 267 271 277 279 280 280 280 279 280 279 280 280 278 275 274 278 280 277 272 270 261 252 249 240 236 233 231 228 230 224 225 224 224 223 221 211 204 201 196 192 188 194 191
55 40 359 3 6 349 349 341 340 349 333 323 317 313 310 312 313 312 306 312 303 307 309 305 305 305 303 304 305 301 300 298 294 290 289 290 289 286 287 288 287 282 271 263 266 272 278 280 281 280 280 281 281 279 280 279 276 273 275 277 275 267 268 263 252 243 236 235 227 224 226 224 224 225 225 219 221 211 202 194 189 183 182 188 193
36 28 14 8 351 343 340 333 342 343 324 322 325 318 311 315 321 320 319 313 315 314 314 309 306 303 302 302 298 300 302 297 295 291 288 284 285 283 282 282 284 286 288 281 273 269 274 277 279 280 280 281 281 282 280 279 278 274 272 273 275 275 269 267 261 249 238 238 229 227 228 224 224 224 224 220 224 226 213 195 186 182 183 187 190
43 25 12 356 337 332 333 332 347 328 323 325 315 312 312 323 325 322 317 315 315 314 311 307 307 306 302 303 296 294 291 288 289 289 284 282 279 279 280 282 283 286 288 293 285 278 270 273 280 282 283 284 284 284 285 283 279 278 276 271 271 273 272 267 266 264 251 239 238 232 230 229 228 226 224 222 217 218 211 202 196 186 184 188 190
66 43 349 336 322 323 323 339 335 327 323 314 312 316 324 322 319 316 318 315 315 313 312 306 303 304 303 300 299 293 289 287 283 279 279 279 278 279 278 280 283 286 293 290 287 282 275 271 274 275 277 278 281 281 279 279 280 277 273 273 273 272 272 269 266 266 262 253 240 233 228 229 229 223 224 225 215 209 209 204 197 188 183 184 192
108 112 284 311 327 324 321 332 332 321 311 311 314 322 323 317 310 315 313 312 312 310 312 310 305 299 296 289 286 287 282 278 275 278 280 275 275 274 276 276 279 278 278 279 281 282 279 274 272 271 269 271 273 276 279 278 277 278 277 270 267 267 270 271 266 260 261 256 246 236 228 228 228 224 219 221 212 212 212 198 190 188 183 184 184
136 138 298 316 313 320 320 321 318 313 307 312 316 314 308 307 311 315 316 314 313 316 312 308 306 302 297 293 286 280 277 274 270 270 272 272 268 269 273 280 278 276 275 275 279 281 282 278 276 273 264 258 262 270 273 275 275 274 274 275 271 266 263 266 268 265 260 257 252 239 230 228 227 227 227 225 219 214 222 222 200 182 183 184 183
146 163 325 342 334 323 316 315 310 300 305 311 313 309 305 315 312 308 308 308 304 301 300 304 304 299 293 289 284 275 272 268 270 267 260 262 270 270 271 271 270 271 274 275 275 278 280 283 281 280 277 273 269 277 281 281 280 279 278 275 274 271 266 262 263 266 260 257 254 248 233 227 224 226 228 226 217 215 216 209 200 195 187 185 184
142 27 338 333 328 312 304 299 289 291 302 308 307 310 316 311 306 309 307 302 295 294 300 305 300 293 285 281 280 281 273 270 268 262 259 262 270 275 272 269 271 272 273 276 276 277 279 278 278 280 279 271 268 271 273 276 275 273 272 272 273 273 270 266 262 260 262 257 254 248 242 227 217 223 224 227 226 223 217 207 202 185 189 188 185
183 324 332 320 293 287 286 287 283 294 296 295 303 304 302 298 298 300 301 301 300 302 303 306 302 297 297 288 286 272 262 261 258 254 256 264 267 274 276 278 279 281 285 286 284 282 282 281 278 279 277 278 278 271 265 265 265 262 267 270 269 267 269 267 263 262 259 258 254 249 246 244 229 222 220 226 229 229 226 219 201 189 186 188 188
188 275 304 285 283 286 285 287 297 294 299 295 290 290 289 289 296 299 296 299 297 302 301 309 306 324 324 318 289 273 280 272 264 274 265 245 265 285 288 285 283 288 286 286 285 281 283 284 283 280 284 288 288 287 284 275 267 268 276 278 280 277 268 266 267 262 260 258 255 252 244 239 239 230 224 222 226 225 217 215 209 188 184 188 190
191 211 251 266 267 272 276 287 297 298 296 296 294 293 293 293 293 293 303 295 288 286 294 314 305 314 298 289 322 330 329 273 189 33 353 319 294 280 278 278 279 279 284 284 281 281 279 280 280 278 281 284 284 283 283 282 279 281 287 288 285 282 284 278 271 268 262 255 254 253 248 241 237 236 225 225 226 221 210 208 202 192 191 192 193
185 209 230 234 251 268 278 282 288 293 290 291 291 287 285 286 290 290 290 293 295 298 300 302 300 322 329 344 305 304 311 333 336 292 289 274 265 270 275 284 287 287 285 278 280 281 283 285 282 286 289 287 285 283 280 278 281 281 276 273 272 274 276 275 272 271 267 261 257 254 251 244 238 240 235 227 224 225 216 206 201 196 193 194 196
194 215 230 244 251 257 268 283 286 286 285 280 278 277 283 285 282 278 279 288 294 293 294 284 279 260 274 318 322 306 291 310 335 302 233 289 290 296 281 273 269 273 273 274 278 277 280 277 279 280 280 280 281 280 279 276 277 278 270 255 251 257 262 266 269 267 267 266 261 257 255 245 234 235 237 233 228 225 222 214 208 211 206 198 193
200 217 223 242 244 247 257 270 276 276 273 272 276 280 276 273 273 276 277 275 283 293 289 285 275 261 242 233 233 269 306 311 326 305 308 277 274 262 280 274 275 276 273 274 274 276 277 281 281 283 284 285 283 281 279 279 280 279 278 284 286 284 285 287 283 282 278 274 265 259 258 258 241 239 239 234 232 228 227 219 207 202 201 198 194
202 212 224 228 241 251 256 260 268 271 272 271 269 271 273 272 272 268 271 278 278 283 290 299 295 265 251 242 244 254 264 286 295 309 306 301 222 275 274 267 269 267 268 270 274 276 275 274 275 275 281 279 278 279 280 279 277 274 273 273 273 271 269 266 270 274 270 275 279 276 261 255 257 245 239 237 233 232 227 223 218 204 200 198 197
207 212 218 226 234 250 252 258 262 267 266 265 266 267 271 272 265 265 267 266 270 273 287 289 287 289 279 274 268 263 257 261 262 272 288 301 301 254 253 267 267 263 269 271 273 273 277 277 281 283 278 278 286 286 285 282 283 280 277 272 266 261 255 256 258 261 267 267 271 274 274 261 255 256 247 242 238 233 233 226 217 207 202 196 195
211 215 215 226 233 248 254 257 262 265 263 261 262 263 267 269 268 267 266 271 270 275 278 279 280 281 289 279 275 269 270 263 261 259 262 290 290 292 288 281 276 274 273 270 265 265 278 285 284 282 282 278 278 280 276 274 274 274 271 269 272 275 274 274 266 262 265 264 265 271 273 275 264 260 257 243 241 234 228 223 214 212 209 205 195
204 206 212 219 228 238 245 254 261 260 259 260 263 266 266 264 263 264 268 271 270 269 268 274 275 277 274 279 276 276 272 268 261 260 262 250 270 295 299 302 296 281 280 282 280 277 277 275 280 280 280 283 280 277 280 279 279 279 279 278 271 267 273 274 273 271 269 271 268 265 269 269 273 268 263 259 240 237 234 220 216 206 204 202 193
198 202 205 211 220 230 243 255 260 264 263 264 262 267 271 274 275 273 270 268 269 269 270 269 270 268 267 266 265 265 263 269 270 270 273 275 281 279 289 293 292 292 278 267 276 278 272 269 268 272 274 273 275 274 273 273 273 273 276 275 272 270 267 264 264 264 262 262 265 265 263 265 264 270 269 263 260 240 234 226 218 215 205 201 189
199 204 209 205 213 234 251 262 261 259 259 261 270 275 278 278 276 274 274 274 272 272 268 268 265 264 263 260 263 264 263 262 266 268 265 269 273 279 285 298 295 279 287 282 269 271 274 271 267 267 269 270 268 269 268 269 269 268 268 270 271 269 264 259 255 256 263 267 270 270 267 265 262 262 268 269 264 259 246 238 226 223 216 206 198
202 204 202 205 230 251 261 258 261 263 268 273 274 274 274 272 270 272 270 269 266 266 267 265 266 264 266 265 266 261 261 260 264 263 264 269 268 275 276 281 281 293 295 292 281 271 259 266 273 266 265 266 269 269 270 272 273 272 273 268 264 261 262 263 264 262 260 261 260 261 264 262 262 258 260 263 265 258 252 240 233 222 215 213 196
207 215 216 211 231 250 260 261 262 264 266 267 268 270 269 269 270 269 271 270 270 267 266 267 265 263 262 266 262 261 261 262 262 262 263 264 262 262 277 278 275 282 290 292 282 285 269 245 255 261 260 260 265 267 266 264 262 262 259 263 266 266 265 261 257 254 250 250 257 261 262 263 262 259 256 259 260 259 252 245 235 224 218 213 205
214 210 200 219 243 253 254 262 264 265 268 269 269 271 271 271 271 270 271 272 272 270 267 265 265 263 264 262 266 263 261 261 258 257 259 255 258 265 270 280 282 275 282 282 288 269 274 278 267 265 266 269 267 267 267 266 265 269 273 268 266 262 260 259 257 257 255 254 256 257 255 257 259 259 255 253 258 258 254 249 240 231 224 216 208
216 221 227 235 246 253 258 259 262 263 266 266 269 271 273 271 272 272 270 270 270 268 268 267 266 265 264 263 263 261 260 260 259 261 259 257 259 262 261 264 271 281 279 284 282 277 283 287 277 266 267 264 265 267 270 272 271 271 273 269 268 270 268 264 260 254 252 251 251 254 257 255 256 259 256 253 254 254 253 249 242 232 226 219 214
218 223 239 242 247 250 257 262 264 264 261 263 264 265 268 269 269 270 270 271 271 269 268 267 266 268 267 266 265 267 265 265 263 262 261 259 257 258 259 260 263 267 273 276 277 287 289 284 286 274 283 288 286 289 286 286 292 294 289 282 278 265 255 254 255 255 253 254 255 258 255 254 254 256 257 252 251 252 250 246 243 235 225 222 216
206 217 228 240 246 248 251 255 258 258 260 263 265 267 268 268 269 269 269 271 271 269 267 266 268 267 268 267 265 267 265 264 264 264 264 267 268 269 270 265 260 258 262 266 273 273 286 281 273 284 285 279 283 281 281 279 275 276 277 283 282 283 286 279 262 251 247 243 246 251 258 262 265 267 268 262 254 251 249 244 238 235 226 219 217
203 217 227 234 237 245 247 255 258 259 263 264 266 266 265 268 269 272 271 270 269 271 269 269 270 270 269 269 267 267 269 271 271 270 270 269 269 269 267 263 261 258 261 262 270 266 265 282 278 278 282 284 285 282 277 275 274 275 272 269 271 275 274 276 281 277 263 259 259 257 258 260 262 263 263 260 259 255 248 244 235 231 228 223 220
207 213 224 232 242 244 248 254 257 259 260 260 259 262 266 266 268 269 270 270 271 271 274 270 270 269 270 270 270 271 273 274 274 275 274 271 271 269 266 265 262 261 260 262 264 270 269 271 276 276 277 279 280 288 287 286 285 281 281 283 283 285 284 277 273 270 268 261 258 253 252 256 256 255 258 258 255 256 251 244 236 229 228 224 217
199 210 219 229 234 239 246 250 253 258 259 261 262 263 262 265 265 267 270 270 272 273 273 273 269 271 271 272 273 274 278 276 275 274 272 272 271 268 266 265 263 261 260 261 265 272 270 263 271 275 277 284 284 278 278 278 277 275 269 267 267 265 267 265 263 262 263 259 256 253 249 250 254 256 258 257 255 255 255 246 237 229 226 225 213
199 211 218 225 231 239 243 247 252 255 256 256 258 258 259 265 267 267 269 272 271 272 273 273 274 272 273 272 272 274 273 275 276 275 276 276 273 270 267 265 265 265 260 267 268 270 273 273 271 277 280 279 281 281 281 281 280 275 268 262 259 261 264 263 260 257 259 258 254 252 249 250 251 253 255 256 256 255 255 248 236 228 224 224 217
199 206 216 220 228 233 242 247 249 251 251 252 252 255 260 263 267 267 268 270 271 271 270 270 273 275 275 274 274 276 276 276 275 275 276 274 274 272 269 266 264 263 265 264 268 267 269 271 272 278 279 279 277 280 275 270 268 273 278 279 278 272 266 265 265 265 258 254 253 251 250 250 251 250 252 252 251 252 254 250 239 227 222 221 219
197 204 209 218 228 237 242 244 244 246 248 250 252 260 260 262 265 267 268 266 266 268 268 270 272 273 272 273 271 273 276 276 275 276 273 273 272 271 271 268 268 268 266 264 259 265 269 274 272 273 278 282 275 275 280 278 269 267 261 262 266 267 267 266 266 266 260 255 251 251 252 254 254 253 251 250 249 250 253 250 240 227 220 218 215
197 200 210 216 228 234 237 239 243 243 247 251 255 258 261 261 263 266 268 267 264 266 267 268 270 271 271 269 273 273 276 276 276 274 273 271 270 269 268 267 265 267 269 267 266 262 265 268 276 274 278 273 275 278 273 277 277 268 268 264 264 267 268 266 263 258 256 250 249 250 253 255 255 252 248 247 247 248 251 251 240 227 218 215 212
193 202 210 221 224 233 238 242 245 249 249 252 255 259 263 264 264 264 265 266 267 267 269 270 269 268 271 276 279 284 282 275 269 271 269 270 270 268 267 267 267 266 265 264 264 265 264 268 271 277 271 271 277 274 273 271 278 282 281 274 268 264 263 265 259 255 245 244 242 247 251 251 251 247 245 245 244 245 247 249 242 228 216 211 207
190 203 212 218 228 233 240 242 244 246 250 254 254 258 259 262 264 264 268 271 270 271 271 275 279 279 278 276 274 271 269 268 266 264 265 267 267 265 264 267 265 265 265 263 261 261 261 264 265 267 271 270 272 279 278 276 271 266 267 272 273 268 268 263 262 250 243 244 240 246 251 254 253 249 243 241 239 240 243 245 241 228 214 207 202
192 205 213 220 228 234 240 242 244 245 249 251 254 255 261 264 267 270 271 276 280 281 278 276 275 274 274 273 270 267 265 262 262 260 259 262 262 266 262 266 267 264 264 262 261 260 261 261 263 267 264 272 272 275 284 287 280 269 255 254 265 269 268 260 251 244 242 244 250 254 251 253 253 249 249 249 248 248 246 245 239 227 214 204 199
195 204 213 222 231 238 238 239 241 244 245 249 249 253 258 269 271 277 277 276 277 279 280 278 276 276 272 271 268 268 263 267 264 268 264 262 259 258 259 255 261 261 260 259 259 261 257 263 260 262 262 263 270 274 281 274 274 278 277 263 262 263 266 269 255 245 246 251 253 254 255 248 253 246 241 245 241 241 245 239 236 224 213 202 197
196 205 213 227 231 235 238 239 240 242 245 245 243 250 259 267 277 280 282 282 282 281 278 280 279 274 275 272 274 269 273 271 275 273 273 272 269 268 264 260 257 255 254 251 250 248 248 254 256 253 259 255 262 268 274 275 277 279 283 282 273 262 259 255 260 251 243 239 247 255 261 256 253 254 243 245 247 238 246 236 225 219 208 200 196
199 204 218 228 230 231 231 236 243 248 250 248 253 261 270 279 283 285 284 285 283 279 281 282 281 283 281 280 275 278 277 278 277 278 276 275 274 273 271 268 265 259 254 253 245 241 248 248 253 247 252 258 261 270 273 280 279 281 278 277 278 280 265 270 275 270 241 277 288 305 289 287 292 283 271 254 249 249 240 233 219 210 203 198 195
199 203 219 226 230 231 232 240 247 252 256 256 262 270 279 283 286 287 288 289 289 288 285 284 285 288 288 286 287 281 278 278 279 280 278 278 276 274 274 273 270 268 265 262 261 259 258 259 258 256 255 264 267 261 271 270 276 277 281 285 284 282 272 261 258 261 268 26 326 305 288 287 270 269 273 262 261 259 243 228 213 205 197 196 194
194 209 221 227 229 231 237 241 252 258 261 266 272 281 285 288 291 295 293 290 288 285 285 285 287 288 286 291 287 284 283 283 283 280 280 279 277 277 276 276 276 275 273 272 270 267 265 263 262 260 254 263 265 264 266 270 273 277 281 281 281 285 286 280 269 277 285 355 301 290 286 283 268 270 276 275 276 267 245 220 206 198 195 194 194
202 219 223 226 229 232 236 245 258 265 267 270 279 285 290 296 300 302 295 292 290 288 286 286 288 290 292 290 292 292 290 287 281 283 280 278 277 275 272 268 266 269 271 273 274 273 270 268 269 268 268 266 266 271 268 268 270 266 271 274 280 283 285 282 285 284 289 301 276 279 278 278 255 275 282 298 291 265 237 213 200 195 191 192 192
204 216 221 221 228 226 239 248 253 264 268 274 283 291 297 302 304 307 301 297 291 285 286 289 291 290 287 287 289 287 285 287 284 283 284 280 277 273 269 265 262 262 260 262 267 268 267 264 266 264 264 260 262 264 264 261 258 263 261 266 270 274 281 286 281 274 279 257 244 238 267 285 296 292 287 293 287 258 222 204 196 191 189 188 188
207 221 229 224 226 230 236 243 251 264 274 281 293 297 303 308 312 311 305 299 296 294 293 293 290 287 287 288 285 286 288 285 288 289 287 286 281 277 272 266 264 261 257 259 258 265 266 266 262 260 258 259 255 255 254 258 257 255 259 261 261 260 264 267 271 278 266 224 204 225 265 285 275 281 288 285 276 255 213 201 192 188 186 185 186
209 216 217 226 229 230 237 244 255 269 277 286 297 305 311 314 316 311 307 302 299 298 296 294 292 290 290 288 290 291 291 293 292 293 293 291 286 283 281 279 276 273 267 264 261 261 266 265 266 267 264 259 252 254 250 255 255 257 257 258 253 255 263 267 268 268 266 220 216 222 259 278 279 277 289 276 275 256 217 195 188 188 182 183 184
210 210 218 232 234 233 241 247 256 267 277 287 299 309 316 316 318 314 310 307 303 301 298 295 293 294 295 295 296 295 296 294 295 296 296 297 294 293 291 289 287 283 281 277 266 257 262 263 263 266 268 267 262 262 260 260 261 257 250 252 257 259 256 257 265 266 276 256 243 202 243 253 295 276 288 289 278 257 217 193 184 185 182 181 182
216 215 222 235 236 247 248 253 263 270 272 283 301 313 316 318 320 316 311 306 305 302 301 300 301 301 298 298 299 299 298 297 299 300 300 299 293 288 285 282 280 278 277 277 274 272 265 259 259 261 261 259 258 257 255 257 261 258 250 249 252 254 258 256 254 264 268 257 220 173 246 301 336 296 349 304 288 259 214 190 183 180 183 180 181